{"data":{"norad_id":64710,"intl_designator":"2025-142Q","name":"STARLINK-34447","alt_names":[],"object_type":"PAYLOAD","status":"ACTIVE","operator":null,"country":"US","launch_date":"2025-06-28","launch_site_code":"AFWTR","launch_vehicle":null,"mission":null,"orbit_class":"UNKNOWN","rcs_meters":null,"size_class":null,"mass_kg":null,"dimensions":null,"purposes":["comms"],"wikipedia_slug":null,"has_3d_model":false,"image_url":null,"decayed_at":null,"tle_current":{"epoch":"2026-09-20T05:16:55.324992Z","epoch_age_seconds":152163,"freshness":"FRESH","line1":"1 64710U 25142Q   26263.22008478  .00018538  00000+0  64706-3 0  9992","line2":"2 64710  70.0010 181.7842 0002474 261.6732  98.4163 15.29614774 68846","mean_motion":15.29614774,"eccentricity":0.0002474,"inclination_deg":70.001,"raan_deg":181.7842,"arg_perigee_deg":261.6732,"mean_anomaly_deg":98.4163,"bstar":0.00064706,"rev_number":6884,"period_min":94.141350127937,"perigee_km":475.26705412089,"apogee_km":478.65895760379,"semimajor_km":6855.1000058623,"source":"CELESTRAK","updated_at":"2026-09-21T09:00:35.405820Z"}}}